This is the latest recevied weather packets stored in our database for station/object DC0PP-10. If no packets are shown the sender has not sent any weather packets the latest 10 day(s).
| Time | Temp. | Humidity | Pressure | Rain* | Wind** | Luminosity | Snow |
|---|---|---|---|---|---|---|---|
| 1777594242 | 13.89° C | 31% | 1025.6 hPa | - | - | - | - |
| 1777593342 | 13.89° C | 30% | 1025.7 hPa | - | - | - | - |
| 1777592442 | 13.89° C | 30% | 1025.6 hPa | - | - | - | - |
| 1777591541 | 14.44° C | 30% | 1025.6 hPa | - | - | - | - |
| 1777590641 | 14.44° C | 30% | 1025.6 hPa | - | - | - | - |
| 1777589739 | 14.44° C | 31% | 1025.4 hPa | - | - | - | - |
| 1777588838 | 14.44° C | 29% | 1025.5 hPa | - | - | - | - |
| 1777587939 | 14.44° C | 30% | 1025.6 hPa | - | - | - | - |
| 1777587038 | 15° C | 29% | 1025.3 hPa | - | - | - | - |
| 1777586138 | 15° C | 28% | 1025.3 hPa | - | - | - | - |
| 1777585237 | 15° C | 29% | 1025 hPa | - | - | - | - |
| 1777584337 | 15° C | 30% | 1025 hPa | - | - | - | - |
| 1777583437 | 15° C | 31% | 1025 hPa | - | - | - | - |
| 1777582537 | 15.56° C | 27% | 1025 hPa | - | - | - | - |
| 1777581637 | 15.56° C | 28% | 1024.8 hPa | - | - | - | - |
| 1777580737 | 15.56° C | 28% | 1024.7 hPa | - | - | - | - |
| 1777579837 | 15.56° C | 28% | 1024.6 hPa | - | - | - | - |
| 1777578936 | 15.56° C | 26% | 1024.5 hPa | - | - | - | - |
| 1777578035 | 15.56° C | 29% | 1024.5 hPa | - | - | - | - |
| 1777577135 | 16.11° C | 29% | 1024.4 hPa | - | - | - | - |
| 1777576235 | 16.11° C | 30% | 1024.3 hPa | - | - | - | - |
| 1777575335 | 16.67° C | 27% | 1024 hPa | - | - | - | - |
| 1777574435 | 17.22° C | 26% | 1023.8 hPa | - | - | - | - |
| 1777573538 | 17.78° C | 25% | 1023.6 hPa | - | - | - | - |
| 1777572638 | 18.89° C | 24% | 1023.5 hPa | - | - | - | - |
* Rain since midnight (hover to see other rain measurements)
** Current wind speed in m/s (hover to see current wind gust speed)